STARLINK-34411

Last updated on Tue Sep 16 2025 00:02:07 GMT+0000 (Coordinated Universal Time)

1 65414U 25192L 25258.58341435 -.01476076 00000+0 -15557-1 0 9990 2 65414 53.1597 338.1110 0001063 82.2957 151.2393 15.66409961 3624
UTC large
Height (km)
Speed (km/s)
/
Latitude / Longitude
Inclination (degrees)
Orbital Period (minutes)
Azimuth
Elevation
Range (km)
Doppler Factor

Next 0 passes for location: London (51.5072 / 0.1276)

Sorry there are no passes over London.